Wetbulb
74.43 77.56 78.48 78.05 77.85 77.84 77.77 77.46 77.11 76.58 76.40 76.73 76.75 76.80 76.77 76.92 76.95 76.68 76.96 77.16 77.19 77.24 76.46 75.75 75.47 74.55 74.84 74.84 74.92 75.10 75.46 75.45 74.83 73.68 73.48 73.33 73.13 73.11 73.74 73.43 73.01 71.19 72.19
75.28 77.26 78.42 77.92 77.77 77.74 77.57 77.61 77.28 76.42 76.45 76.75 76.73 76.67 76.64 76.99 77.00 76.68 76.78 76.93 77.09 77.21 75.65 75.46 75.46 74.41 74.73 74.73 74.65 74.64 74.42 74.90 75.00 74.46 73.43 73.11 72.97 73.51 73.61 72.93 72.57 71.52 72.04
74.85 77.01 77.84 77.75 77.72 77.70 77.29 77.33 76.90 76.22 76.50 76.62 76.52 76.40 76.54 76.89 76.92 76.67 76.65 76.66 76.71 76.40 74.97 74.76 74.61 74.33 74.48 74.46 74.18 74.11 74.20 74.55 74.49 74.44 73.85 71.14 70.60 72.98 73.38 72.57 72.42 72.37 71.78
75.14 76.01 77.04 78.00 77.47 77.42 77.16 77.00 76.57 76.25 76.40 76.47 76.30 76.47 76.57 76.82 76.79 76.70 76.68 76.49 76.31 75.54 74.61 74.37 74.36 74.33 74.25 74.13 73.69 73.65 73.81 74.46 74.69 73.99 72.57 73.02 70.85 72.61 72.95 72.52 71.99 72.13 71.90
74.06 75.32 76.76 78.10 77.59 77.37 77.31 76.85 76.25 76.02 76.38 76.35 76.35 76.35 76.47 76.61 76.64 76.64 76.61 76.36 76.10 74.86 74.40 74.61 74.67 75.22 75.04 74.64 74.58 74.35 74.70 74.73 73.84 73.36 71.47 71.68 69.37 72.67 72.87 72.89 72.16 71.81 72.08
74.39 75.58 77.33 77.71 77.67 77.29 77.26 76.83 76.35 76.17 76.25 76.33 76.33 76.42 76.42 76.56 76.58 76.43 76.55 76.13 75.88 75.54 75.05 75.02 75.40 75.28 75.11 75.16 74.71 74.28 74.03 73.90 73.65 70.20 69.78 70.57 69.21 74.44 73.95 73.36 73.57 72.90 72.30
74.49 75.70 76.91 77.57 77.55 77.54 77.37 76.91 76.35 76.35 76.04 76.10 76.35 76.25 76.42 76.46 76.30 76.33 76.47 75.93 75.50 75.37 75.27 75.35 75.11 74.98 74.81 74.86 74.58 73.63 73.35 73.23 70.98 69.32 69.07 70.35 70.69 73.78 74.90 74.77 74.73 73.88 72.68
75.07 75.30 76.16 77.73 77.44 77.17 77.11 76.60 76.25 76.17 76.02 76.02 76.09 76.24 76.26 76.03 76.03 76.08 76.04 75.71 75.18 74.95 75.36 75.43 75.16 74.50 74.03 73.86 73.91 73.59 73.41 72.94 70.68 68.03 67.97 70.60 72.05 73.96 75.25 74.80 74.36 74.38 73.88
75.45 74.43 75.04 76.31 77.04 77.35 76.66 76.38 76.23 75.95 75.68 75.70 75.70 75.84 76.02 75.78 75.80 75.70 75.64 75.37 74.98 74.71 74.76 75.05 75.00 74.58 73.98 73.83 73.69 73.36 73.36 73.02 69.22 68.02 68.20 70.49 74.08 74.98 75.60 75.03 74.73 74.88 74.75
74.35 73.95 74.04 74.80 75.64 76.09 76.14 76.63 76.25 75.85 75.73 75.41 75.69 75.76 75.64 75.65 75.55 75.45 74.64 74.96 74.87 74.30 74.38 74.50 74.57 74.32 73.85 73.40 73.26 73.18 73.51 73.00 69.07 68.07 66.99 68.28 74.20 75.51 75.73 75.20 75.06 75.01 74.98
73.02 72.91 73.30 73.97 74.47 74.61 75.15 76.14 76.14 76.46 76.15 75.61 75.64 75.53 74.70 73.60 74.05 74.67 74.45 75.05 74.96 74.49 74.18 74.05 74.12 73.86 73.74 73.75 73.57 73.46 73.39 69.36 67.68 67.14 66.94 71.16 74.13 75.32 75.49 74.75 74.56 74.71 74.93
69.92 71.93 72.62 73.01 73.36 73.39 75.18 74.68 74.39 75.13 74.82 74.29 74.17 74.04 72.61 71.05 72.06 73.26 73.53 74.52 74.89 74.54 74.18 73.73 73.53 73.23 72.96 68.47 67.26 72.17 69.74 68.42 66.62 64.74 62.81 72.14 73.86 74.51 74.55 73.31 72.85 72.66 72.98
67.23 71.54 71.67 71.62 71.86 70.26 73.04 73.12 73.03 73.54 73.49 72.95 72.72 72.69 70.88 70.85 71.16 71.55 70.60 71.82 71.76 73.73 71.55 72.16 71.52 70.77 69.10 67.24 65.43 63.54 66.82 65.92 64.41 64.59 65.57 73.04 72.76 73.84 73.84 73.00 72.26 72.32 72.40
70.58 70.48 69.37 68.62 66.34 68.73 72.49 71.65 71.01 70.92 70.43 69.90 70.36 71.80 70.09 69.53 69.37 69.32 70.42 70.19 70.47 70.45 69.79 68.86 69.47 69.33 68.41 67.47 66.19 65.07 64.44 64.16 64.75 65.58 64.95 73.06 72.15 73.25 73.97 73.68 73.06 72.82 72.55
70.05 70.45 69.04 68.52 68.39 69.31 70.86 69.78 69.90 69.90 69.88 69.98 70.39 72.03 70.30 69.43 69.76 70.01 69.86 69.52 70.22 70.35 69.97 68.56 68.80 68.79 68.52 68.30 67.81 67.08 66.69 66.19 66.26 66.84 67.51 73.52 71.92 72.49 73.71 74.16 74.03 73.74 73.33
69.89 70.59 67.17 67.65 68.34 67.65 68.23 69.81 69.88 70.45 70.51 70.81 71.19 72.61 72.28 71.07 71.18 70.01 69.61 70.38 70.49 70.56 70.25 69.35 68.88 67.96 68.81 69.32 69.94 70.73 67.42 67.91 69.12 70.20 70.98 71.40 72.54 71.83 72.48 73.46 74.03 73.94 73.79
68.51 68.71 66.70 67.09 67.71 66.84 66.99 66.15 73.00 72.31 70.89 70.90 71.64 72.47 73.07 72.44 72.47 71.73 71.95 71.04 70.57 71.99 71.32 71.11 72.22 72.21 71.27 69.77 67.29 68.56 65.89 66.88 68.34 69.54 68.46 71.79 71.58 72.63 72.63 72.37 73.18 73.72 73.88
66.34 65.52 66.99 67.32 63.81 63.82 63.45 65.43 71.96 71.61 70.49 69.49 68.86 71.11 70.76 71.42 69.78 71.84 70.42 68.91 69.27 72.00 71.36 70.08 69.78 69.65 69.20 67.55 64.00 64.42 63.27 65.07 66.56 69.68 70.86 72.22 70.82 70.34 71.95 73.61 73.38 73.13 73.61
65.55 66.73 66.56 65.31 62.87 64.83 65.69 67.22 69.90 70.71 67.33 67.91 68.18 68.10 69.78 70.30 69.13 67.89 68.16 66.90 66.77 66.42 64.82 65.32 63.78 67.42 68.93 68.57 69.39 68.24 69.02 67.86 68.97 69.84 67.22 68.02 69.08 69.70 70.09 71.75 72.95 72.63 72.87
67.62 67.17 64.12 66.64 65.59 65.74 64.45 64.84 66.01 65.80 68.28 66.04 66.77 67.56 68.47 70.05 67.76 67.38 67.35 67.33 64.65 66.63 63.71 64.82 63.66 64.68 69.44 67.39 65.46 63.94 62.98 63.33 63.85 64.34 65.35 66.09 67.33 67.17 66.74 66.50 67.03 69.27 72.42
67.81 66.37 62.43 62.54 65.08 64.19 64.16 63.01 62.94 62.41 63.92 67.06 64.52 68.23 68.02 66.84 68.34 66.57 66.29 65.39 63.93 66.54 64.00 66.57 66.45 66.50 63.58 62.50 59.27 59.10 59.17 59.55 59.29 59.23 60.55 61.74 63.34 64.15 64.48 63.50 63.62 65.58 67.60
67.75 66.17 65.61 65.01 66.77 64.71 64.46 64.87 64.31 63.39 65.06 70.03 65.34 66.53 65.86 65.41 67.63 63.29 65.10 64.60 64.97 69.22 66.04 65.47 64.93 62.91 61.83 62.22 59.50 55.32 52.03 54.42 55.56 57.62 58.76 60.39 58.39 59.64 59.65 61.38 61.80 63.29 63.55
67.68 69.89 69.57 69.65 67.60 66.44 68.64 69.74 69.37 68.94 69.13 69.15 68.25 65.96 66.24 67.16 69.67 68.11 66.71 67.47 64.54 63.29 61.88 63.70 62.95 62.74 59.63 60.89 59.23 56.08 51.77 49.18 51.22 55.03 56.56 57.36 57.99 57.29 57.63 59.02 60.71 61.66 63.14
67.99 70.87 71.62 71.85 70.67 71.21 71.81 69.37 69.30 67.63 66.39 68.15 68.04 68.32 66.01 67.61 68.92 65.91 63.84 63.12 63.53 62.87 61.85 62.96 63.70 63.21 61.40 58.33 58.76 59.41 57.25 55.10 53.11 54.18 55.11 55.77 58.71 58.08 58.60 59.66 60.28 60.40 61.10
66.68 66.86 68.66 70.15 69.66 69.28 69.31 68.81 67.38 66.70 63.62 63.11 64.57 62.63 61.35 61.55 62.88 63.80 63.16 62.46 62.41 62.12 62.24 61.83 61.39 61.11 61.41 60.58 59.31 58.24 57.02 56.33 55.32 53.53 53.35 54.55 56.47 55.16 57.61 56.72 58.17 57.16 59.77
64.11 65.76 66.93 65.26 63.82 63.61 65.43 63.96 63.25 62.89 62.78 63.23 61.45 60.20 61.48 62.70 62.71 62.12 63.22 62.07 62.49 61.73 61.23 61.66 60.71 59.50 59.59 59.72 60.50 60.56 59.57 59.28 59.47 58.20 57.11 57.24 56.70 57.73 56.63 57.43 57.38 58.37 58.24
MSLP
1007.48 1007.60 1007.44 1007.41 1007.52 1007.89 1008.30 1008.72 1009.16 1009.51 1009.87 1010.15 1010.50 1010.96 1011.32 1011.58 1011.84 1012.03 1012.34 1012.65 1012.97 1013.27 1013.50 1013.64 1013.90 1014.20 1014.46 1014.54 1014.55 1014.62 1014.82 1014.93 1014.92 1014.99 1015.11 1015.19 1015.27 1015.51 1015.65 1015.65 1015.98 1016.27 1016.46
1005.95 1007.03 1007.43 1007.25 1007.44 1007.72 1008.24 1008.73 1009.20 1009.72 1010.06 1010.33 1010.56 1010.90 1011.40 1011.75 1011.95 1012.26 1012.51 1012.73 1012.90 1013.30 1013.61 1013.64 1013.87 1014.17 1014.41 1014.55 1014.57 1014.63 1014.93 1015.00 1014.99 1015.02 1015.20 1015.36 1015.53 1015.46 1015.63 1015.80 1016.06 1016.32 1016.44
1005.93 1006.34 1007.57 1007.50 1007.57 1007.75 1008.15 1008.67 1009.15 1009.72 1010.25 1010.50 1010.80 1011.10 1011.41 1011.78 1012.12 1012.36 1012.60 1012.80 1012.96 1013.20 1013.49 1013.67 1013.84 1014.07 1014.38 1014.59 1014.68 1014.75 1014.99 1015.01 1015.03 1015.09 1015.21 1015.44 1015.64 1015.69 1015.57 1015.81 1016.01 1016.21 1016.37
1005.92 1006.42 1007.61 1008.01 1007.94 1008.12 1008.46 1008.78 1009.08 1009.56 1010.04 1010.46 1010.90 1011.24 1011.53 1011.86 1012.10 1012.40 1012.72 1012.96 1013.05 1013.22 1013.37 1013.57 1013.81 1014.04 1014.23 1014.43 1014.61 1014.70 1014.88 1014.96 1014.93 1015.04 1015.20 1015.26 1015.33 1015.61 1015.60 1015.78 1015.93 1016.11 1016.31
1006.10 1006.50 1007.54 1008.01 1007.95 1008.04 1008.36 1008.86 1009.20 1009.49 1009.84 1010.33 1010.77 1011.14 1011.50 1011.79 1012.07 1012.22 1012.57 1012.86 1013.07 1013.14 1013.26 1013.49 1013.73 1014.04 1014.25 1014.30 1014.44 1014.55 1014.68 1014.68 1014.49 1014.57 1014.67 1014.67 1015.09 1015.28 1015.32 1015.56 1015.79 1015.96 1016.12
1006.12 1006.88 1007.46 1008.05 1008.16 1008.25 1008.41 1008.67 1008.89 1009.41 1009.93 1010.15 1010.55 1011.08 1011.48 1011.83 1012.13 1012.38 1012.59 1012.82 1013.07 1013.20 1013.21 1013.32 1013.61 1013.92 1014.17 1014.32 1014.26 1014.36 1014.43 1014.45 1014.24 1014.18 1014.21 1014.35 1014.68 1014.90 1015.18 1015.33 1015.52 1015.76 1015.96
1006.11 1007.09 1007.28 1007.67 1007.83 1008.20 1008.65 1009.06 1009.28 1009.48 1010.07 1010.85 1011.07 1011.23 1011.62 1011.98 1012.27 1012.47 1012.62 1012.83 1013.09 1013.29 1013.41 1013.50 1013.55 1013.72 1013.96 1014.17 1014.15 1014.14 1014.32 1014.37 1014.24 1014.24 1014.30 1014.54 1014.34 1014.60 1014.90 1015.12 1015.31 1015.52 1015.67
1006.12 1006.94 1007.50 1007.77 1007.72 1008.13 1008.62 1009.34 1009.98 1010.27 1010.48 1010.79 1011.32 1011.62 1011.88 1012.43 1012.94 1013.08 1013.19 1013.16 1013.22 1013.34 1013.54 1013.62 1013.74 1013.78 1013.94 1014.02 1014.18 1014.26 1014.43 1014.58 1014.34 1014.17 1014.46 1014.49 1014.24 1014.36 1014.59 1014.84 1015.13 1015.28 1015.45
1006.13 1007.26 1007.72 1007.96 1007.97 1008.34 1008.77 1009.20 1009.90 1010.31 1010.37 1010.80 1011.36 1011.97 1012.18 1012.39 1012.54 1012.95 1013.38 1013.45 1013.39 1013.55 1013.51 1013.67 1013.75 1013.95 1014.18 1014.34 1014.42 1014.48 1014.49 1014.52 1014.46 1014.19 1013.96 1014.08 1014.35 1014.19 1014.24 1014.44 1014.68 1014.90 1015.13
1006.25 1006.19 1007.71 1008.22 1008.67 1008.77 1008.90 1008.91 1009.54 1010.35 1010.77 1011.02 1011.48 1011.92 1012.44 1012.76 1012.87 1012.93 1013.02 1013.17 1013.37 1013.32 1013.52 1013.74 1013.80 1013.93 1014.07 1014.21 1014.39 1014.53 1014.38 1014.25 1014.27 1014.13 1013.90 1014.06 1014.03 1014.02 1014.01 1014.07 1014.23 1014.48 1014.78
1005.44 1005.64 1006.12 1007.85 1008.55 1009.04 1009.56 1009.71 1009.97 1010.57 1011.04 1011.33 1011.61 1012.12 1012.60 1012.81 1012.89 1013.14 1013.22 1013.16 1013.18 1013.04 1013.16 1013.25 1013.65 1013.88 1013.99 1014.16 1014.21 1014.11 1014.08 1014.10 1014.12 1013.92 1013.73 1013.65 1013.75 1013.85 1013.91 1013.96 1014.03 1014.18 1014.34
1004.07 1004.00 1005.46 1006.98 1008.58 1009.02 1009.34 1010.14 1010.70 1010.89 1011.24 1011.54 1011.95 1012.41 1012.89 1013.10 1013.16 1012.92 1012.99 1013.06 1013.14 1013.24 1013.20 1013.30 1013.47 1013.81 1014.05 1014.08 1014.05 1014.08 1014.14 1013.90 1013.90 1013.57 1013.39 1013.02 1013.12 1013.32 1013.44 1013.54 1013.62 1013.71 1013.99
1006.42 1007.18 1006.60 1007.63 1008.07 1009.33 1010.15 1010.73 1010.82 1011.45 1011.68 1012.02 1012.06 1012.60 1013.01 1012.95 1013.15 1013.16 1013.12 1013.04 1013.13 1013.39 1013.35 1013.39 1013.46 1013.43 1013.55 1013.67 1013.68 1013.65 1013.58 1013.76 1013.58 1013.15 1012.79 1012.59 1012.58 1012.71 1012.78 1012.82 1013.05 1013.14 1013.34
1007.64 1008.26 1008.64 1009.51 1009.75 1009.71 1010.10 1010.76 1011.23 1011.57 1011.53 1011.34 1011.53 1011.68 1012.36 1012.85 1012.83 1012.92 1013.03 1012.88 1012.92 1012.81 1012.87 1012.72 1012.85 1012.92 1013.10 1013.07 1013.03 1013.13 1013.05 1013.26 1013.35 1012.91 1012.59 1012.33 1012.30 1012.40 1012.55 1012.68 1012.61 1012.62 1012.69
1007.55 1006.64 1009.92 1009.18 1010.07 1009.75 1010.39 1010.54 1010.83 1011.36 1010.92 1010.71 1010.85 1011.14 1011.87 1012.22 1012.35 1012.20 1012.45 1012.58 1012.64 1012.59 1012.74 1012.81 1012.59 1012.67 1012.88 1012.89 1012.54 1012.40 1012.54 1012.80 1012.72 1012.49 1012.35 1012.13 1011.83 1011.87 1011.96 1012.04 1011.98 1012.01 1012.04
1006.63 1006.71 1008.48 1008.59 1010.78 1008.34 1010.32 1011.44 1011.45 1010.99 1010.04 1010.18 1010.13 1010.50 1011.04 1011.46 1011.79 1012.22 1012.68 1012.84 1012.59 1012.51 1012.37 1012.43 1012.44 1012.55 1012.65 1012.79 1013.22 1013.12 1013.50 1013.55 1013.87 1013.34 1012.32 1012.05 1011.38 1011.21 1011.21 1011.34 1011.49 1011.49 1011.49
1006.45 1007.67 1008.81 1008.05 1009.41 1008.11 1008.54 1011.64 1011.34 1010.79 1009.40 1009.73 1009.72 1009.74 1010.14 1010.71 1011.46 1011.87 1012.10 1012.22 1012.40 1012.15 1011.91 1011.78 1011.79 1011.74 1012.29 1012.43 1012.68 1012.99 1012.99 1013.03 1013.99 1013.61 1012.31 1012.13 1010.95 1010.84 1011.23 1011.33 1011.27 1011.19 1010.90
1006.01 1006.45 1006.89 1006.98 1008.04 1008.06 1008.20 1008.32 1008.25 1010.87 1009.58 1009.81 1010.26 1010.69 1011.11 1011.32 1012.21 1011.96 1013.19 1012.89 1013.66 1012.83 1012.86 1013.42 1012.91 1012.14 1012.63 1012.27 1012.37 1012.65 1012.88 1013.10 1013.11 1013.04 1012.80 1011.56 1010.75 1010.64 1010.64 1010.49 1010.33 1010.49 1010.51
1005.61 1006.28 1006.69 1007.02 1007.80 1008.13 1007.89 1008.28 1009.54 1010.17 1010.24 1010.68 1011.05 1009.11 1011.51 1011.53 1011.52 1012.45 1012.51 1013.09 1011.97 1013.23 1013.19 1012.73 1014.45 1014.07 1013.66 1012.71 1012.59 1012.07 1012.41 1012.68 1012.68 1012.12 1011.64 1010.82 1010.42 1010.15 1009.94 1009.81 1009.66 1009.69 1009.81
1004.90 1006.02 1006.50 1007.03 1007.61 1008.41 1008.67 1009.22 1008.55 1009.36 1009.95 1010.43 1011.16 1012.38 1011.28 1010.95 1011.93 1012.05 1012.52 1013.89 1013.16 1013.31 1013.51 1013.05 1014.77 1013.94 1013.65 1013.11 1012.92 1012.29 1012.02 1011.95 1011.69 1011.40 1011.10 1010.44 1010.16 1010.10 1009.86 1009.73 1009.81 1009.57 1009.40
1005.06 1005.92 1006.65 1007.54 1008.39 1008.54 1008.67 1008.96 1009.23 1009.55 1009.46 1010.32 1010.79 1011.57 1011.44 1011.76 1011.86 1011.34 1011.22 1012.71 1013.48 1013.41 1013.84 1013.32 1013.36 1013.15 1012.72 1012.95 1013.09 1012.84 1012.25 1011.82 1011.80 1011.41 1011.17 1010.87 1010.51 1010.16 1010.02 1009.72 1009.63 1009.22 1008.88
1005.14 1005.62 1006.59 1007.31 1007.74 1008.14 1008.02 1008.33 1008.54 1009.45 1009.93 1010.38 1011.23 1011.51 1011.24 1011.80 1011.78 1011.61 1011.37 1011.98 1012.27 1012.48 1013.13 1013.23 1012.92 1012.69 1012.27 1012.91 1013.63 1013.50 1013.04 1012.52 1011.61 1011.49 1011.14 1010.77 1010.52 1010.24 1009.84 1009.43 1008.92 1008.74 1008.34
1004.41 1004.99 1005.84 1006.44 1006.89 1007.66 1008.38 1008.69 1008.85 1009.39 1009.27 1009.53 1010.01 1010.34 1010.42 1010.75 1010.47 1011.04 1011.67 1012.31 1012.27 1012.40 1012.84 1012.65 1012.25 1012.44 1013.26 1013.19 1013.36 1013.41 1013.47 1012.84 1012.30 1011.55 1011.06 1010.51 1010.09 1009.86 1009.62 1009.26 1008.47 1008.02 1007.83
1003.72 1004.30 1005.10 1005.98 1006.61 1006.93 1007.76 1007.93 1007.87 1008.18 1009.04 1008.85 1009.30 1009.68 1010.02 1010.36 1010.41 1010.54 1011.24 1011.80 1011.87 1012.02 1012.01 1012.11 1012.55 1012.70 1013.00 1013.38 1013.32 1012.70 1012.88 1012.64 1012.35 1010.99 1010.57 1010.28 1009.73 1009.76 1009.57 1008.91 1008.40 1007.90 1007.20
1003.49 1004.21 1005.04 1005.66 1006.46 1007.02 1007.54 1007.91 1007.75 1008.35 1008.65 1009.17 1009.24 1009.95 1010.26 1010.92 1010.82 1010.62 1010.81 1011.38 1011.59 1011.71 1011.95 1012.28 1012.42 1012.53 1012.63 1012.69 1012.74 1012.48 1012.10 1012.05 1011.74 1011.44 1009.76 1009.80 1009.75 1009.51 1009.00 1008.34 1007.65 1007.25 1006.87
1004.18 1004.75 1005.61 1006.26 1007.34 1007.69 1007.95 1007.99 1008.34 1008.38 1009.05 1009.65 1010.36 1010.74 1011.02 1010.96 1010.76 1010.86 1011.16 1011.44 1011.62 1012.15 1012.49 1012.68 1012.81 1012.80 1012.96 1012.87 1012.73 1012.44 1012.23 1011.88 1011.26 1010.89 1010.16 1009.86 1009.42 1008.86 1008.41 1007.76 1007.43 1006.95 1006.51
Wind_Speed
7 9 17 19 20 20 19 18 17 17 17 17 17 16 15 15 15 16 15 14 12 13 13 14 14 14 13 13 13 12 11 10 11 13 13 14 15 13 11 8 11 9 10
18 12 16 20 21 21 20 19 17 16 16 17 18 17 16 15 15 14 14 13 14 13 13 14 14 13 13 12 10 10 8 7 8 10 10 10 10 13 12 12 12 9 9
17 15 14 19 20 21 21 19 18 17 16 17 17 17 16 15 14 14 13 13 13 13 14 14 14 14 12 10 7 7 5 4 5 5 7 4 4 9 13 11 10 10 8
17 14 11 17 19 20 20 19 19 18 17 17 17 17 16 15 15 14 13 12 12 13 14 14 14 14 12 10 6 4 3 2 1 1 3 5 6 9 11 11 10 9 7
16 13 12 17 19 20 20 19 18 18 18 17 17 17 17 16 15 15 14 13 13 14 15 14 14 12 11 10 6 3 2 3 5 4 4 9 6 10 12 11 9 8 7
14 13 15 16 17 18 19 20 20 19 18 18 18 17 16 15 14 13 13 12 12 12 14 14 12 11 10 8 7 3 1 4 7 5 5 9 9 13 12 11 9 9 9
15 11 13 16 17 17 18 17 18 19 18 16 16 16 15 14 13 13 12 12 12 11 12 12 12 11 10 9 8 6 4 6 5 4 4 7 9 15 14 12 11 10 10
14 11 10 15 16 17 18 17 15 16 16 16 15 15 15 13 11 11 10 10 10 11 11 11 10 10 10 9 8 7 5 6 6 6 2 4 10 16 15 13 11 11 10
16 11 8 8 12 16 17 17 15 15 17 16 15 13 14 13 13 12 10 9 9 9 10 10 9 9 8 7 7 7 6 7 5 5 5 3 12 15 15 14 13 12 11
10 16 10 6 5 7 9 18 17 15 14 16 15 15 13 12 12 12 12 11 10 10 9 9 9 8 8 8 8 8 9 12 6 6 4 4 13 14 15 15 15 13 13
12 16 17 12 8 6 5 9 13 15 13 13 13 13 10 5 7 9 9 11 11 11 11 10 10 9 9 9 10 12 12 4 5 5 4 7 16 16 15 14 13 13 13
16 21 17 16 11 9 9 9 5 7 5 5 5 5 3 4 5 9 9 12 12 11 10 10 10 9 8 4 4 11 5 5 5 6 4 13 18 16 15 14 14 13 13
9 5 13 12 13 8 7 4 3 2 3 2 5 5 4 5 4 5 4 5 4 9 4 6 6 5 7 5 5 5 6 5 4 5 6 15 17 18 18 16 14 13 13
10 5 16 14 10 9 7 5 4 3 3 4 5 8 5 3 5 5 4 5 6 5 7 7 5 7 7 8 8 6 7 5 4 5 5 16 14 15 14 14 15 15 14
15 16 10 11 8 11 8 2 5 7 7 7 6 8 6 6 5 7 6 6 6 5 7 7 7 6 7 7 7 8 6 5 6 4 2 13 16 16 16 17 18 16 16
18 22 19 14 8 10 3 12 4 8 9 8 8 9 11 7 5 4 4 5 5 6 6 6 6 4 5 3 4 9 9 9 14 11 5 5 13 14 17 17 18 18 18
13 19 16 17 16 12 20 12 8 6 8 3 5 9 12 9 4 4 4 5 4 5 6 5 4 2 5 3 4 4 5 4 5 13 12 7 5 2 6 15 17 19 20
12 12 13 11 16 12 12 8 7 3 3 3 5 4 7 11 12 6 8 11 13 12 12 12 7 2 2 3 1 3 4 2 8 8 10 6 4 4 7 10 17 20 21
16 15 16 14 13 3 7 5 4 8 4 6 7 2 2 7 7 10 8 9 10 3 10 7 14 12 9 6 4 4 4 5 8 8 7 6 6 6 4 7 14 18 19
12 11 8 8 9 8 5 3 2 5 4 3 1 2 3 5 6 6 6 6 4 9 4 7 4 9 5 2 3 5 4 4 5 5 6 7 6 7 7 5 5 6 14
11 11 12 10 10 7 2 2 1 2 3 3 3 4 5 3 10 6 3 6 6 6 3 8 6 8 3 2 2 4 4 5 5 5 5 5 6 5 4 5 4 4 4
16 13 13 9 12 7 4 2 3 5 4 5 6 4 5 4 8 4 2 6 8 5 4 7 7 2 1 1 2 1 4 5 3 5 4 4 7 5 8 7 6 8 6
16 19 19 18 16 13 11 6 4 5 1 3 6 8 8 11 11 8 8 7 5 5 3 1 3 4 2 3 4 3 2 4 3 4 6 5 7 6 7 7 8 9 7
14 14 17 19 17 15 14 11 14 10 6 4 2 4 5 6 8 8 8 7 6 3 3 3 3 1 2 3 3 3 4 5 5 12 4 4 6 7 7 7 6 7 7
13 12 11 9 7 3 3 3 5 4 3 3 4 7 6 5 7 6 6 5 4 4 3 3 4 5 2 2 3 3 3 3 3 5 11 10 8 5 6 6 10 8 7
10 9 9 12 8 7 6 7 7 8 10 8 5 4 4 1 3 6 5 5 5 4 2 2 2 2 3 3 3 3 3 4 6 7 11 11 12 8 5 5 7 8 6
Wind_Direction
143 154 146 140 135 135 134 134 135 132 128 124 118 109 104 104 103 103 104 106 112 113 110 106 104 100 97 93 88 84 88 98 105 101 99 105 108 103 87 57 121 102 96
139 155 156 146 143 141 139 139 138 135 134 129 123 120 118 115 112 110 110 110 111 116 115 111 108 105 101 93 90 88 84 83 90 104 106 105 113 118 105 88 105 108 105
144 143 159 152 148 145 144 145 142 141 139 133 128 128 128 124 120 120 121 121 121 124 122 118 117 113 109 104 105 101 87 84 88 101 133 128 126 133 119 114 117 118 118
139 136 152 159 150 147 147 148 146 146 143 138 135 135 134 132 131 130 130 130 130 131 129 126 124 123 124 123 126 110 87 37 53 176 201 193 169 156 134 131 132 132 135
135 132 157 164 156 153 151 152 150 149 148 145 144 144 143 143 143 142 142 143 143 140 136 133 132 133 134 134 138 127 61 330 318 288 230 206 159 166 152 147 146 150 145
139 145 157 161 158 157 156 157 155 153 153 152 150 148 148 150 150 149 149 150 151 148 145 142 141 141 142 144 151 171 223 293 312 320 336 159 159 161 167 165 159 158 165
146 150 155 162 159 160 159 160 159 155 153 153 151 150 153 155 157 157 157 156 156 155 152 149 150 153 158 166 172 185 226 279 299 296 320 186 154 164 173 168 166 172 180
126 138 158 165 160 160 159 157 157 153 152 153 153 155 155 158 161 163 163 158 157 160 162 161 162 164 173 179 186 196 225 271 306 312 87 207 172 169 173 173 178 185 194
137 137 155 167 165 160 155 154 156 160 155 153 155 159 160 163 163 165 166 166 165 168 170 172 172 177 184 193 202 215 227 245 265 278 288 157 185 177 180 180 185 193 203
150 145 146 149 145 155 162 156 154 160 159 155 160 162 166 170 170 171 172 175 178 176 180 185 187 190 196 206 218 227 229 234 238 259 263 210 194 194 190 189 192 198 207
179 167 154 149 159 147 141 156 150 157 162 164 162 164 161 164 172 182 185 188 187 185 188 188 200 204 207 219 227 231 235 227 234 243 247 221 194 200 200 199 199 204 211
189 169 157 151 156 151 155 155 135 164 155 152 146 153 161 180 190 190 197 200 197 201 198 199 205 214 220 224 238 246 239 229 238 253 232 226 190 198 202 205 207 210 217
326 202 154 156 150 141 120 132 130 135 135 133 142 160 204 206 205 218 209 200 189 210 205 211 219 212 208 212 231 225 225 209 230 253 257 196 193 201 207 207 212 212 216
60 31 84 61 43 23 129 158 154 143 157 170 187 177 189 212 205 203 189 196 192 204 208 208 204 215 217 216 223 227 207 207 228 245 252 205 204 209 213 218 221 219 217
138 120 69 81 36 45 35 169 169 185 182 189 181 180 193 212 210 200 195 192 204 209 211 221 217 217 215 220 233 221 208 233 245 250 264 202 203 210 216 222 227 224 221
145 131 122 128 154 130 79 307 265 202 194 188 185 189 200 206 218 197 188 200 224 218 222 227 226 226 234 224 24 57 51 30 343 318 291 254 214 212 224 229 234 231 229
136 143 157 137 157 130 117 243 276 269 186 154 217 188 199 206 180 232 208 215 222 225 228 233 210 149 114 117 104 149 118 111 357 269 283 279 264 270 261 248 252 249 238
123 141 157 161 163 155 153 179 137 286 104 89 35 12 62 54 29 2 27 37 357 1 11 3 354 26 57 95 208 156 194 214 236 257 258 265 277 274 265 249 247 245 242
137 152 157 150 156 132 88 81 181 126 55 54 63 9 41 64 55 35 31 347 356 5 63 7 358 333 7 294 252 234 218 220 227 238 252 268 264 259 254 258 245 241 240
135 137 131 147 139 117 105 167 71 89 98 73 164 222 162 115 80 97 106 245 238 263 129 101 231 260 248 289 320 347 324 333 330 328 313 314 313 303 303 309 312 279 248
127 129 136 133 146 144 111 111 57 127 71 165 211 177 129 96 159 161 153 176 189 229 223 182 211 218 240 331 13 336 319 298 314 315 298 304 301 295 298 281 270 270 279
146 145 142 158 169 170 169 180 155 139 184 191 154 192 174 165 191 229 141 201 203 232 212 192 190 202 39 33 221 173 305 320 294 273 294 284 281 278 295 277 270 276 263
142 151 164 175 171 176 189 194 183 188 120 131 168 189 198 195 189 182 198 221 200 160 204 216 77 115 205 277 223 174 267 246 290 239 254 265 274 276 269 266 270 268 264
156 146 151 160 168 184 178 171 170 173 172 180 156 119 138 184 167 151 158 169 159 147 74 37 62 99 125 272 308 236 219 208 278 299 265 261 261 274 271 273 284 282 279
149 146 137 136 119 163 137 140 137 112 123 100 92 113 129 159 141 126 116 105 88 62 60 11 349 337 309 246 235 294 305 277 262 272 297 297 285 262 255 249 272 287 279
116 88 83 93 81 66 96 104 100 123 122 112 103 89 53 6 70 67 73 89 100 97 57 17 1 333 311 294 273 285 270 288 298 297 297 293 287 291 282 291 284 283 272